sat.trackr.live / text

‹ back to catalog

STARLINK-6148

NORAD 57117 · 2023-090S

PAYLOAD ACTIVE UNKNOWN

§ Identity

Operator
Country
US
Launch date
2023-06-23
Launch site
AFETR
Launch vehicle
Mass (kg)
RCS (m²)

Purposes: comms

External: N2YO · Heavens-Above · Gunter

§ Orbital elements

Epoch: 2026-09-20T11:03:16.728192Z

Period
94.27 min
Inclination
43.0029°
Eccentricity
0.0001392
Mean motion
15.27596316 rev/d
Perigee alt
482.0 km
Apogee alt
484.0 km
Semi-major
6,861.1 km
B*
1.0192e-4
RAAN
261.2843°
Arg perigee
271.2574°
Mean anomaly
88.8119°
Rev number
18,011

§ Raw data

STARLINK-61481 57117U 23090S   26263.46061028  .00002545  00000+0  10192-3 0  99922 57117  43.0029 261.2843 0001392 271.2574  88.8119 15.27596316180111

JSON: /api/v1/satellites/57117 · /tle

For live sub-satellite position, see the globe view (requires WebGL).

§ Visibility from observer

Set your observer location to see the next 7 days of passes ≥ 10°. The values pass through the URL so the page stays shareable.

No JS? Fill the form by hand. The geolocation button needs JavaScript.